Home   Weather   22°43'N, 71°38'E   Past weeks
Flag for India

Past Weather in 22°43'N, 71°38'E, India — Yesterday and Last 2 Weeks

Now
88 °F

Passing clouds.


Feels Like: 94 °F
Forecast: 97 / 82 °F
Wind: 12 mph from Southwest

Location: Ahmadabad Airport

Current Time: Jul 16, 2019 at 12:55:17 am

Latest Report: Jul 16, 2019 at 12:00 am


Visibility: 2 mi

Pressure: 29.62 "Hg

Humidity: 59%

Dew Point: 72 °F

Location of 22°43'N, 71°38'ELocation

Past Weather in 22°43'N, 71°38'E — Graph

°F

22°43'N, 71°38'E Temperature Yesterday

Maximum temperature yesterday: 102 °F (at 5:00 pm)
Minimum temperature yesterday: 84 °F (at 3:00 am)
Average temperature yesterday: 90 °F

High & Low Weather Summary for the Past Weeks

 TemperatureHumidityPressure
High104 °F (Jul 13, 3:30 pm)100% (Jul 4, 3:30 am)29.71 "Hg (Jul 4, 3:30 am)
Low75 °F (Jul 7, 1:30 am)35% (Jul 13, 3:30 pm)29.42 "Hg (Jul 5, 4:00 pm)
Average89 °F68%29.54 "Hg
* Reported Jun 30 11:30 pm — Jul 15 11:30 pm, 22°43'N, 71°38'E. Weather by CustomWeather, © 2019

Note: Actual official high and low records may vary slightly from our data, if they occured in-between our weather recording intervals... More about our weather records

Advertising

22°43'N, 71°38'E Weather History for the Previous 24 Hours

Scroll right to see more
 ConditionsComfort  
Time TempWeatherWind HumidityBarometerVisibility
11:30 pm
Mon, Jul 15
90 °FPassing clouds.9 mph55%29.62 "Hg2 mi
11:00 pm90 °FPassing clouds.9 mph55%29.62 "Hg2 mi
10:30 pm91 °FPassing clouds.9 mph52%29.59 "Hg2 mi
10:00 pm93 °FPassing clouds.8 mph47%29.56 "Hg2 mi
9:30 pm93 °FPassing clouds.14 mph47%29.56 "Hg2 mi
9:00 pm95 °FPassing clouds.17 mph47%29.53 "Hg2 mi
8:30 pm95 °FPassing clouds.16 mph44%29.53 "Hg2 mi
8:00 pm95 °FPassing clouds.12 mph44%29.53 "Hg2 mi
7:30 pm97 °FScattered clouds.13 mph39%29.50 "Hg2 mi
7:00 pm99 °FScattered clouds.17 mph37%29.50 "Hg2 mi
6:30 pm99 °FScattered clouds.N/A39%29.50 "Hg3 mi
6:00 pm100 °FScattered clouds.16 mph37%29.50 "Hg3 mi
5:30 pm102 °FScattered clouds.8 mph35%29.50 "Hg3 mi
5:00 pm102 °FScattered clouds.17 mph35%29.50 "Hg3 mi
11:30 am93 °FScattered clouds.16 mph49%29.62 "Hg2 mi
11:00 am91 °FScattered clouds.13 mph56%29.62 "Hg2 mi
10:30 am91 °FScattered clouds.14 mph52%29.62 "Hg2 mi
10:00 am90 °FScattered clouds.12 mph59%29.62 "Hg2 mi
9:30 am88 °FBroken clouds.10 mph66%29.62 "Hg2 mi
9:00 am86 °FBroken clouds.12 mph70%29.62 "Hg2 mi
8:30 am86 °FPartly sunny.10 mph70%29.59 "Hg2 mi
8:00 am86 °FPartly sunny.12 mph66%29.59 "Hg2 mi
7:30 am84 °FPartly sunny.12 mph70%29.59 "Hg2 mi
7:00 am84 °FPartly sunny.9 mph70%29.59 "Hg2 mi
6:30 am84 °FPassing clouds.8 mph70%29.59 "Hg2 mi
6:00 am84 °FPassing clouds.10 mph70%29.56 "Hg2 mi
5:30 am84 °FPassing clouds.8 mph70%29.56 "Hg2 mi
5:00 am84 °FPassing clouds.9 mph70%29.56 "Hg2 mi
4:30 am84 °FPassing clouds.10 mph70%29.56 "Hg2 mi
4:00 am84 °FPassing clouds.10 mph70%29.56 "Hg2 mi
3:30 am84 °FPassing clouds.13 mph70%29.56 "Hg2 mi
3:00 am84 °FPassing clouds.15 mph70%29.56 "Hg2 mi
2:30 am86 °FHaze.13 mph66%29.56 "Hg2 mi
2:00 am86 °FHaze.16 mph66%29.56 "Hg2 mi
1:30 am86 °FPassing clouds.13 mph62%29.59 "Hg2 mi
1:00 am88 °FPassing clouds.10 mph59%29.59 "Hg2 mi
12:30 am88 °FPassing clouds.12 mph59%29.59 "Hg2 mi
12:00 am88 °FPassing clouds.12 mph59%29.59 "Hg2 mi
Weather by CustomWeather, © 2019

See weather overview